Weather History for Salinas, CA

Change the Weather History Date:

Friday, February 22, 2013

  Actual Average Record
Temperature  
Mean Temperature 48 °F 54 °F  
Max Temperature 62 °F 63 °F 82 °F (1947)
Min Temperature 34 °F 44 °F 30 °F (1975)
Degree Days  
Heating Degree Days 17 12  
Month to date heating degree days 322 270  
Since 1 July heating degree days 1672 1748  
Cooling Degree Days 0 0  
Month to date cooling degree days 0 0  
Year to date cooling degree days 0 0  
Moisture  
Dew Point 38 °F    
Average Humidity 69    
Maximum Humidity 96    
Minimum Humidity 42    
Precipitation  
Precipitation 0.00 in 0.09 in 1.84 in (2001)
Month to date precipitation 0.56 1.97  
Year to date precipitation 1.60 4.57  
Since 1 July precipitation 8.24 8.68  
Sea Level Pressure  
Sea Level Pressure 30.26 in    
Wind  
Wind Speed 7 mph (SSW)    
Max Wind Speed 14 mph    
Max Gust Speed 20 mph    
Visibility 10 miles    
Events      
T = Trace of Precipitation, MM = Missing Value Source: NWS Daily Summary

Daily Weather History Graph

Daily Weather History Graph

Search for Another Location

Airport:

Trip Planner

Search our weather history database for the weather conditions in past years. The results will help you decide how hot, cold, wet, or windy it might be!

Date:

Astronomy

Feb. 22, 2013 Rise Set
Actual Time 6:45 AM PST 5:54 PM PST
Civil Twilight 6:19 AM PST 6:20 PM PST
Nautical Twilight 5:49 AM PST 6:50 PM PST
Astronomical Twilight 5:19 AM PST 7:20 PM PST
Moon 3:13 PM PST (2/22) 4:31 AM PST (2/22)
Length of Visible Light 12h 01m
Length of Day
11h 08m
Waxing Gibbous, 91% of the Moon is Illuminated
Feb 22
Waxing Gibbous
Feb 25
Full
Mar 4
Last Quarter
Mar 11
New
Mar 19
First Quarter

Hourly Weather History & Observations

Time (PST) Temp. Windchill Dew Point Humidity Pressure Visibility Wind Dir Wind Speed Gust Speed Precip Events Conditions
12:53 AM 37.9 °F 35.5 °F 35.1 °F 89% 30.23 in 10.0 mi ESE 3.5 mph - N/A   Clear
1:53 AM 39.0 °F - 35.1 °F 86% 30.23 in 10.0 mi Calm Calm - N/A   Clear
2:53 AM 37.9 °F 35.5 °F 34.0 °F 86% 30.22 in 10.0 mi ENE 3.5 mph - N/A   Clear
3:53 AM 37.0 °F 34.5 °F 33.1 °F 86% 30.22 in 10.0 mi SE 3.5 mph - N/A   Clear
4:53 AM 36.0 °F 32.1 °F 33.1 °F 89% 30.24 in 10.0 mi ESE 4.6 mph - N/A   Clear
5:53 AM 36.0 °F 30.3 °F 32.0 °F 86% 30.25 in 10.0 mi ESE 6.9 mph - N/A   Clear
6:53 AM 34.0 °F - 32.0 °F 92% 30.27 in 10.0 mi Calm Calm - N/A   Clear
7:53 AM 37.9 °F 32.7 °F 34.0 °F 86% 30.28 in 10.0 mi ESE 6.9 mph - N/A   Clear
8:53 AM 43.0 °F 36.8 °F 36.0 °F 76% 30.29 in 10.0 mi ESE 11.5 mph - N/A   Clear
9:53 AM 48.0 °F - 37.9 °F 68% 30.29 in 10.0 mi ESE 8.1 mph - N/A   Clear
10:53 AM 54.0 °F - 39.0 °F 57% 30.27 in 10.0 mi East 4.6 mph - N/A   Clear
11:53 AM 59.0 °F - 37.0 °F 44% 30.27 in 10.0 mi Variable 3.5 mph - N/A   Clear
12:53 PM 61.0 °F - 37.9 °F 42% 30.25 in 10.0 mi NW 11.5 mph - N/A   Clear
1:53 PM 61.0 °F - 37.0 °F 41% 30.23 in 10.0 mi West 12.7 mph - N/A   Clear
2:53 PM 59.0 °F - 39.0 °F 48% 30.23 in 10.0 mi WSW 11.5 mph - N/A   Clear
3:53 PM 59.0 °F - 39.0 °F 48% 30.24 in 10.0 mi West 11.5 mph - N/A   Clear
4:53 PM 55.9 °F - 37.9 °F 51% 30.25 in 10.0 mi WSW 8.1 mph - N/A   Clear
5:53 PM 55.0 °F - 37.0 °F 51% 30.26 in 10.0 mi West 9.2 mph - N/A   Clear
6:53 PM 52.0 °F - 39.9 °F 63% 30.25 in 10.0 mi NW 4.6 mph - N/A   Clear
7:53 PM 51.1 °F - 39.9 °F 66% 30.26 in 10.0 mi WNW 9.2 mph - N/A   Clear
8:53 PM 50.0 °F - 43.0 °F 77% 30.28 in 10.0 mi West 10.4 mph - N/A   Clear
9:53 PM 48.9 °F - 44.1 °F 83% 30.27 in 10.0 mi SW 5.8 mph - N/A   Clear
10:53 PM 48.9 °F - 42.1 °F 77% 30.30 in 10.0 mi SW 9.2 mph - N/A   Clear
11:47 PM 48.2 °F - 44.6 °F 87% 30.28 in 8.0 mi Calm Calm - N/A   Mostly Cloudy
11:53 PM 48.9 °F - 45.0 °F 86% 30.31 in 9.0 mi WSW 3.5 mph - N/A   Mostly Cloudy